TIANHE (48274 NORAD) Tracking and Keplerian Element Data

This shows tracking and keplerian element data for the satellite.

Feedback or suggestion? Click here.




ElementValue
Catalog48274
NameTIANHE
Epoch Orbit854
Epoch Day173.62761285
Epoch Year2021
RAAN249.9359
Inclination41.4687
Eccentricity0.0007697
Argument of Perigee329.5138
Mean Anonmoly182.5673
Mean Motion15.62521587
Decay Rate0.00065577
L11 48274U 21035A 21173.62761285 .00065577 00000-0 71214-3 0 9995
L22 48274 41.4687 249.9359 0007697 329.5138 182.5673 15.62521587 8549

Live tracking and technical data element details for TIANHE (NORAD 48274). TIANHE can be tracked NOW for your location showing map with azimuth and elevation plus other details from your city location.

Track the satellite on the map from your city or location and see movement details for azimuth, elevation, latitude, longitude, range, height, and movement on the map or in text.







IsCatalogInMostPopularTable: catalog: 48274, numindb: 70
Update: records affected: 1



GetName: 48274 TIANHE

Hit Count: updated at: Thu, 24 Jun 2021 02:05:43 GMT